Weather observations for the past three days for
Phoenix, Phoenix-Deer Valley Municipal Airport
Imperial (Metric)
Date Time (mst) Wind (mph) Vis. (mi.) Weather Sky Cond. Temperature (ºF) Relative Humidity Wind Chill (°F) Heat Index (°F) Pressure Precipitation (in)
Air Dwpt 6 hour altimeter (in) sea level (mb) 1 hr 3 hr 6 hr
Max. Min.
16 05:53 SW 5 10.00 Fair CLR 86 63 46% 87 29.92 1010.2
16 04:53 SW 7 10.00 Fair CLR 87.1 63 93.9 86 45% 88 29.9 1009.5
16 03:53 SE 5 10.00 Fair CLR 87.1 64 46% 88 29.88 1008.9
16 02:53 S 5 10.00 Fair CLR 88 64 45% 89 29.87 1008.6
16 01:53 Vrbl 3 10.00 Fair CLR 89.1 60.1 38% 89 29.87 1008.4
16 00:53 W 6 10.00 Fair CLR 90 61 38% 90 29.86 1008.2
15 23:53 E 5 10.00 Fair CLR 91.9 57 31% 91 29.86 1008.3
15 22:53 NE 3 10.00 Fair CLR 91.9 57 106 91.9 31% 91 29.85 1008.0
15 21:53 NE 10 10.00 Fair CLR 93 57.9 31% 92 29.86 1008.2
15 20:53 NE 13 G 23 10.00 Partly Cloudy SCT120 96.1 57 27% 95 29.85 1007.8
15 19:53 SW 9 10.00 Fair CLR 102 59 24% 102 29.81 1006.4
15 18:53 W 13 10.00 Fair CLR 104 57.9 22% 104 29.78 1005.5
15 17:53 W 15 10.00 Fair CLR 105.1 59 22% 106 29.78 1005.6
15 16:53 NW 13 G 20 10.00 Fair CLR 105.1 59 106 93 22% 106 29.78 1005.4
15 15:53 W 9 10.00 Fair CLR 105.1 63 25% 108 29.81 1006.5
15 14:53 W 8 G 17 10.00 Fair CLR 102 64.9 30% 106 29.86 1008.1
15 13:53 Vrbl 5 G 20 10.00 Fair CLR 100 64 31% 103 29.9 1009.7
15 12:53 SW 8 10.00 Fair CLR 97 64.9 35% 100 29.94 1011.1
15 11:53 W 8 G 17 10.00 Fair CLR 95 64.9 37% 98 29.97 1012.2
15 10:53 SW 9 10.00 Fair CLR 93 66 93.9 82 41% 96 29.99 1013.1
15 09:53 Calm 10.00 Fair CLR 90 66.9 47% 93 30.01 1013.8
15 08:53 SW 5 10.00 Fair CLR 88 66.9 50% 91 30.02 1013.8
15 07:53 W 3 10.00 Fair CLR 87.1 68 53% 91 30.02 1013.8
15 06:53 W 7 10.00 Fair CLR 84.9 66.9 55% 88 30.01 1013.5
15 05:53 NE 5 10.00 Fair CLR 82 73.9 77% 88 30.01 1013.3
15 04:53 Calm 10.00 Fair CLR 82.9 73 84 79 72% 89 29.99 1012.6
15 03:53 Calm 10.00 Fair CLR 82.9 72 70% 88 29.97 1011.9
15 02:53 SW 6 10.00 Fair CLR 82.9 73 72% 89 29.97 1011.9
15 01:53 E 6 10.00 Fair CLR 84 72 67% 90 29.96 1011.6
15 00:53 NE 10 10.00 Fair CLR 82 73.9 77% 88 29.97 1012.0
14 23:53 N 8 10.00 Fair CLR 80.1 75 85% 85 30 1013.2
14 22:53 NE 7 10.00 A Few Clouds FEW070 FEW120 79 75 107.1 75.9 88% 83 29.97 1012.4 0.27 0.88
14 21:53 SW 32 G 52 0.50 Thunderstorm Heavy Rain and Windy SCT019 BKN080 OVC110 77 72 85% 78 30.06 1015.5 0.61
14 20:53 SW 18 G 28 10.00 Partly Cloudy SCT110 98.1 66 35% 102 29.94 1011.1
14 19:53 SW 14 G 22 10.00 Fair CLR 100 61 28% 101 29.89 1009.4
14 18:53 SW 15 10.00 Fair CLR 102.9 62.1 26% 105 29.87 1008.6
14 17:53 W 15 10.00 Fair CLR 105.1 63 25% 108 29.86 1008.3
14 16:53 SW 16 G 22 10.00 Fair CLR 106 63 106 93.9 25% 109 29.87 1008.4
14 15:53 W 18 G 25 10.00 Fair CLR 104 64 27% 108 29.9 1009.3
14 14:53 W 12 G 22 10.00 Fair CLR 102.9 64 28% 106 29.93 1010.4
14 13:53 SW 6 G 18 10.00 Fair CLR 100 66 33% 104 29.96 1011.6
14 12:53 SW 10 G 23 10.00 Fair CLR 98.1 66.9 36% 103 29.99 1012.5
14 11:53 SW 8 G 17 10.00 Fair CLR 97 66.9 37% 101 30.02 1013.5
14 10:53 W 12 G 22 10.00 Fair CLR 95 66.9 95 86 40% 99 30.04 1014.1
14 09:53 SW 10 10.00 Fair CLR 91.9 66.9 44% 95 30.04 1014.4
14 08:53 S 5 10.00 Fair CLR 90 69.1 50% 95 30.05 1014.8
14 07:53 SW 3 10.00 Fair CLR 87.1 69.1 55% 91 30.06 1014.9
14 06:53 NW 8 10.00 Fair CLR 87.1 69.1 55% 91 30.04 1014.4
14 05:53 NW 5 10.00 Fair CLR 86 69.1 57% 90 30.03 1013.8
14 04:53 W 8 10.00 Fair CLR 87.1 66.9 99 86 51% 90 30 1012.8
14 03:53 W 22 G 30 10.00 Fair and Breezy CLR 88 64.9 46% 90 29.98 1012.1
14 02:53 W 15 10.00 Fair CLR 91.9 63 38% 93 29.94 1010.9
14 01:53 W 16 10.00 Fair CLR 93.9 64 37% 96 29.94 1010.6
14 00:53 W 13 10.00 Fair CLR 95 64.9 37% 98 29.94 1010.6
13 23:53 SW 6 10.00 Fair CLR 97 57.9 27% 96 29.92 1010.1
13 22:53 NW 6 10.00 Fair CLR 99 55.9 109 99 24% 98 29.91 1009.7
13 21:53 W 7 10.00 Fair CLR 100.9 55 22% 99 29.89 1009.0
13 20:53 SW 6 10.00 Fair CLR 102 55 21% 101 29.88 1008.5
13 19:53 SW 9 10.00 Fair CLR 104 54 19% 102 29.86 1008.0
13 18:53 W 12 10.00 Fair CLR 107.1 52 16% 105 29.85 1007.6
13 17:53 SW 10 10.00 Fair CLR 107.1 52 16% 105 29.85 1007.6
13 16:53 SW 8 G 18 10.00 Fair CLR 108 54 109 100.9 17% 106 29.85 1007.7
13 15:53 Vrbl 6 10.00 Fair CLR 107.1 54 17% 106 29.88 1008.6
13 14:53 SW 9 G 18 10.00 Fair CLR 107.1 55.9 19% 106 29.9 1009.5
13 13:53 Calm 10.00 Fair CLR 105.1 59 22% 106 29.93 1010.2
13 12:53 S 7 10.00 Fair CLR 104 59 23% 104 29.94 1010.9
13 11:53 Vrbl 6 10.00 Fair CLR 102.9 60.1 24% 104 29.96 1011.3
13 10:53 S 8 10.00 Fair CLR 100.9 62.1 102 88 28% 103 29.96 1011.5
13 09:53 S 12 G 17 10.00 Fair CLR 100.9 60.1 26% 102 29.96 1011.4
13 08:53 E 7 10.00 Fair CLR 99 55.9 24% 98 29.95 1011.1
13 07:53 SE 6 10.00 Fair CLR 96.1 55 25% 94 29.95 1011.1
13 06:53 E 3 10.00 Fair CLR 93 55.9 29% 91 29.93 1010.4
Date Time (mst) Wind (mph) Vis. (mi.) Weather Sky Cond. Air Dwpt Max. Min. Relative Humidity Wind Chill (°F) Heat Index (°F) altimeter (in) sea level (mb) 1 hr 3 hr 6 hr
6 hour
Temperature (ºF) Pressure Precipitation (in)